STARLINK-11160, 60125

Orbit data source: Space-Track

STARLINK-11160, 60125 is a payload satellite owned by SpaceX/Seattle (US) in LEO that was launched on Mon, 24 Jun 2024 UTC via an FALCON 9 launch vehicle from the Air Force Western Test Range (AFWTR). Payload-class satellites include a variety of spacecraft equipped with specific instruments for various scientific and technological missions. These include communications satellites like Starlink; space stations such as the ISS; scientific satellites like the Hubble; Earth observation satellites from companies like Planet Labs, Umbra, and HawkEye 360; GPS; miniature CubeSats for education and research; and military/defense satellites.

Loading next visibility...
Identifier
60125, 2024-118N
Orbit
LEO
Country
Flag of USUS
Related business
Manufacturer
SpaceX/Seattle
Mission
Operational Commercial Communications
Bus & Motor
STARLINK V2MD, Unknown motor
Mass
960 kg wet, ~910 kg dry
Launch date (UTC)
2024-06-24 (1 year ago)
Launch vehicle
FALCON 9
Launch site
Air Force Western Test Range (AFWTR)
Object type
Payload
Rocket body
Debris
Shape & HBR
Box + 2 Pan, 18.1 m
Radar Cross Section
36.964 m², Large (>1 m²)

Expand to show TLE details & history
Last TLE update: 1 day ago

TLE from 1 day ago
0 STARLINK-11160
1 60125U 24118N   25353.96581218 -.00000345  00000-0  20164-5 0  9999
2 60125  53.1588 254.1294 0001285  87.0007 273.1157 15.69712591 85477
Epoch: 2025-12-19T23:10Z
TLE epoch observation values (Epoch: 2025-12-19T23:10:46.172Z)
Latitude
-0.00009°
Longitude
177.63756°
Altitude
360.587 km
Speed
7.694 km/s
True Right ascension
16h 56m 31s
True Declination
0° 00' 00"
Sunlit
Object was in daylight at epoch
Visualization orbit readout
Latitude
Unknown
Longitude
Unknown
Altitude
Unknown
Speed
Unknown
Apparent Right ascension
Unknown
Apparent Declination
Unknown
Sunlit
N/A
Visualization observer readout
Local Sidereal Time
00:28:37
Azimuth
Unknown
Elevation
Unknown
Doppler factor
Unknown
Orbital elements
Apogee altitude
360.846 km
Perigee altitude
359.114 km
Semi-major axis
6,738.117 km
Eccentricity
0.00013
Inclination
53.1588°
RAAN
254.1294°
Arg. of periapsis
87.0007°
True anomaly
273.101°
Mean anomaly
273.1157°
Eccentric anomaly
273.10835°
Mean motion
3.92406 °/min
Orbital period
91.74 mins
BSTAR
0.0000020164
Loading maneuver chart data...
Computing Atmospheric mass density...
Loading historical data...
Loading historical data...
Loading historical data...
Loading historical data...
Loading historical data...
Loading historical data...
Loading historical data...

Documentation

Showing up to 5 results
|